{"data":{"norad_id":45794,"intl_designator":"2020-039A","name":"GAOFEN-9 03","alt_names":[],"object_type":"PAYLOAD","status":"ACTIVE","operator":null,"country":"PRC","launch_date":"2020-06-17","launch_site_code":"JSC","launch_vehicle":null,"mission":null,"orbit_class":"UNKNOWN","rcs_meters":null,"size_class":null,"mass_kg":null,"dimensions":null,"purposes":[],"wikipedia_slug":null,"has_3d_model":false,"image_url":null,"decayed_at":null,"tle_current":{"epoch":"2026-05-25T04:05:16.806624Z","epoch_age_seconds":64314,"freshness":"FRESH","line1":"1 45794U 20039A   26145.17033341  .00007121  00000+0  23274-3 0  9994","line2":"2 45794  97.5355 278.6467 0012321 158.2678 201.9088 15.31978204330230","mean_motion":15.31978204,"eccentricity":0.0012321,"inclination_deg":97.5355,"raan_deg":278.6467,"arg_perigee_deg":158.2678,"mean_anomaly_deg":201.9088,"bstar":0.00023274,"rev_number":33023,"period_min":93.996115365098,"perigee_km":461.4733293762,"apogee_km":478.34828878734,"semimajor_km":6848.0478090818,"source":"CELESTRAK","updated_at":"2026-05-25T13:37:56.249884Z"}}}